Time,TemperatureF,DewpointF,PressureIn,WindDirection,WindDirectionDegrees,WindSpeedMPH,WindSpeedGustMPH,Humidity,HourlyPrecipIn,Conditions,Clouds,dailyrainin,SolarRadiationWatts/m^2,SoftwareType,DateUTC
2013-04-14 00:00:00,50.4,36.2,29.97,NNW,343,0.0,0.0,58,0.00,,---,0.00,0.00,VWS V14.01,2013-04-14 04:00:00,
2013-04-14 00:05:00,51.5,36.8,29.98,NNW,343,0.0,0.0,57,0.00,,---,0.00,0.00,VWS V14.01,2013-04-14 04:05:00,
2013-04-14 00:10:00,50.9,35.3,29.97,NNW,343,0.0,0.0,55,0.00,,---,0.00,0.00,VWS V14.01,2013-04-14 04:10:00,
2013-04-14 00:15:00,50.9,37.1,29.98,NNW,343,0.0,0.0,59,0.00,,---,0.00,0.00,VWS V14.01,2013-04-14 04:15:00,
2013-04-14 00:20:00,50.5,35.8,29.98,NNW,343,0.0,0.0,57,0.00,,---,0.00,0.00,VWS V14.01,2013-04-14 04:20:00,
2013-04-14 00:25:00,50.6,36.8,29.98,NNW,343,0.0,0.0,59,0.00,,---,0.00,0.00,VWS V14.01,2013-04-14 04:25:00,
2013-04-14 00:30:00,49.7,36.4,29.98,NNW,343,0.0,0.0,60,0.00,,---,0.00,0.00,VWS V14.01,2013-04-14 04:30:00,
2013-04-14 00:35:00,50.4,37.5,29.98,NNW,343,0.0,0.0,61,0.00,,---,0.00,0.00,VWS V14.01,2013-04-14 04:35:00,
2013-04-14 00:40:00,50.5,37.2,29.98,NNW,343,0.0,0.0,60,0.00,,---,0.00,0.00,VWS V14.01,2013-04-14 04:40:00,
2013-04-14 00:45:00,50.2,36.4,29.99,NNW,343,0.0,0.0,59,0.00,,---,0.00,0.00,VWS V14.01,2013-04-14 04:45:00,
2013-04-14 00:50:00,49.8,36.5,29.99,NNW,342,0.0,0.0,60,0.00,,---,0.00,0.00,VWS V14.01,2013-04-14 04:50:00,
2013-04-14 00:55:00,49.2,37.6,29.99,NW,316,0.0,0.0,64,0.00,,---,0.00,0.00,VWS V14.01,2013-04-14 04:55:00,
2013-04-14 01:00:00,49.0,37.4,29.99,NW,315,0.0,0.0,64,0.00,,---,0.00,0.00,VWS V14.01,2013-04-14 05:00:00,
2013-04-14 01:05:00,49.2,38.3,29.99,SW,217,0.0,0.0,66,0.00,,---,0.00,0.00,VWS V14.01,2013-04-14 05:05:00,
2013-04-14 01:10:00,49.7,38.0,29.99,SW,217,0.0,0.0,64,0.00,,---,0.00,0.00,VWS V14.01,2013-04-14 05:10:00,
2013-04-14 01:15:00,49.7,37.6,29.99,SW,217,0.0,0.0,63,0.00,,---,0.00,0.00,VWS V14.01,2013-04-14 05:15:00,
2013-04-14 01:20:00,49.9,38.2,29.99,SW,217,0.0,0.0,64,0.00,,---,0.00,0.00,VWS V14.01,2013-04-14 05:20:00,
2013-04-14 01:25:00,49.5,36.2,29.99,SW,217,0.0,0.0,60,0.00,,---,0.00,0.00,VWS V14.01,2013-04-14 05:25:00,
2013-04-14 01:30:00,49.2,37.6,29.99,SW,217,0.0,0.0,64,0.00,,---,0.00,0.00,VWS V14.01,2013-04-14 05:30:00,
2013-04-14 01:35:00,48.8,37.6,29.98,SW,217,0.0,0.0,65,0.00,,---,0.00,0.00,VWS V14.01,2013-04-14 05:35:00,
2013-04-14 01:40:00,48.9,38.1,29.98,SW,217,0.0,0.0,66,0.00,,---,0.00,0.00,VWS V14.01,2013-04-14 05:40:00,
2013-04-14 01:45:00,48.9,37.7,29.98,SW,217,0.0,0.0,65,0.00,,---,0.00,0.00,VWS V14.01,2013-04-14 05:45:00,
2013-04-14 01:50:00,49.7,38.8,29.98,SW,217,0.0,0.0,66,0.00,,---,0.00,0.00,VWS V14.01,2013-04-14 05:50:00,
2013-04-14 01:55:00,50.4,39.1,29.98,SW,217,0.0,0.0,65,0.00,,---,0.00,0.00,VWS V14.01,2013-04-14 05:55:00,
2013-04-14 02:00:00,50.8,39.1,29.98,SW,217,0.0,0.0,64,0.00,,---,0.00,0.00,VWS V14.01,2013-04-14 06:00:00,
2013-04-14 02:05:00,50.8,38.3,29.98,SW,217,0.0,0.0,62,0.00,,---,0.00,0.00,VWS V14.01,2013-04-14 06:05:00,
2013-04-14 02:10:00,50.3,38.2,29.98,SW,217,0.0,0.0,63,0.00,,---,0.00,0.00,VWS V14.01,2013-04-14 06:10:00,
2013-04-14 02:15:00,50.2,38.1,29.98,SW,217,0.0,0.0,63,0.00,,---,0.00,0.00,VWS V14.01,2013-04-14 06:15:00,
2013-04-14 02:20:00,49.6,38.3,29.97,SW,217,0.0,0.0,65,0.00,,---,0.00,0.00,VWS V14.01,2013-04-14 06:20:00,
2013-04-14 02:25:00,50.0,39.1,29.97,SW,217,0.0,0.0,66,0.00,,---,0.00,0.00,VWS V14.01,2013-04-14 06:25:00,
2013-04-14 02:30:00,50.3,38.6,29.97,SW,217,0.0,0.0,64,0.00,,---,0.00,0.00,VWS V14.01,2013-04-14 06:30:00,
2013-04-14 02:35:00,49.8,38.5,29.97,SW,217,0.0,0.0,65,0.00,,---,0.00,0.00,VWS V14.01,2013-04-14 06:35:00,
2013-04-14 02:40:00,49.6,38.7,29.97,SW,217,0.0,0.0,66,0.00,,---,0.00,0.00,VWS V14.01,2013-04-14 06:40:00,
2013-04-14 02:45:00,49.5,38.6,29.97,SW,217,0.0,0.0,66,0.00,,---,0.00,0.00,VWS V14.01,2013-04-14 06:45:00,
2013-04-14 02:50:00,49.5,39.0,29.97,SW,217,0.0,0.0,67,0.00,,---,0.00,0.00,VWS V14.01,2013-04-14 06:50:00,
2013-04-14 02:55:00,49.0,38.9,29.97,SW,217,0.0,0.0,68,0.00,,---,0.00,0.00,VWS V14.01,2013-04-14 06:55:00,
2013-04-14 03:00:00,49.6,39.5,29.97,SW,217,0.0,0.0,68,0.00,,---,0.00,0.00,VWS V14.01,2013-04-14 07:00:00,
2013-04-14 03:05:00,49.2,39.1,29.97,SW,217,0.0,0.0,68,0.00,,---,0.00,0.00,VWS V14.01,2013-04-14 07:05:00,
2013-04-14 03:10:00,48.8,38.7,29.97,SW,217,0.0,0.0,68,0.00,,---,0.00,0.00,VWS V14.01,2013-04-14 07:10:00,
2013-04-14 03:15:00,48.5,38.8,29.97,SW,217,0.0,0.0,69,0.00,,---,0.00,0.00,VWS V14.01,2013-04-14 07:15:00,
2013-04-14 03:20:00,49.1,39.4,29.97,SW,217,0.0,0.0,69,0.00,,---,0.00,0.00,VWS V14.01,2013-04-14 07:20:00,
2013-04-14 03:25:00,49.1,39.4,29.97,SW,217,0.0,0.0,69,0.00,,---,0.00,0.00,VWS V14.01,2013-04-14 07:25:00,
2013-04-14 03:30:00,48.3,39.0,29.97,SW,217,0.0,0.0,70,0.00,,---,0.00,0.00,VWS V14.01,2013-04-14 07:30:00,
2013-04-14 03:35:00,47.6,39.0,29.97,SW,217,0.0,0.0,72,0.00,,---,0.00,0.00,VWS V14.01,2013-04-14 07:35:00,
2013-04-14 03:40:00,47.9,39.3,29.97,SW,217,0.0,0.0,72,0.00,,---,0.00,0.00,VWS V14.01,2013-04-14 07:40:00,
2013-04-14 03:45:00,48.3,39.3,29.97,SW,217,0.0,0.0,71,0.00,,---,0.00,0.00,VWS V14.01,2013-04-14 07:45:00,
2013-04-14 03:50:00,48.5,39.5,29.97,SW,217,0.0,0.0,71,0.00,,---,0.00,0.00,VWS V14.01,2013-04-14 07:50:00,
2013-04-14 03:55:00,48.9,39.9,29.97,SW,217,0.0,0.0,71,0.00,,---,0.00,0.00,VWS V14.01,2013-04-14 07:55:00,
2013-04-14 04:00:00,48.3,39.3,29.97,SW,217,0.0,0.0,71,0.00,,---,0.00,0.00,VWS V14.01,2013-04-14 08:00:00,
2013-04-14 04:05:00,47.8,39.2,29.97,SW,217,0.0,0.0,72,0.00,,---,0.00,0.00,VWS V14.01,2013-04-14 08:05:00,
2013-04-14 04:10:00,47.6,38.7,29.98,SW,217,0.0,0.0,71,0.00,,---,0.00,0.00,VWS V14.01,2013-04-14 08:10:00,
2013-04-14 04:15:00,47.6,39.0,29.98,SW,217,0.0,0.0,72,0.00,,---,0.00,0.00,VWS V14.01,2013-04-14 08:15:00,
2013-04-14 04:20:00,47.5,38.9,29.98,SW,217,0.0,0.0,72,0.00,,---,0.00,0.00,VWS V14.01,2013-04-14 08:20:00,
2013-04-14 04:25:00,47.4,38.5,29.97,SW,217,0.0,0.0,71,0.00,,---,0.00,0.00,VWS V14.01,2013-04-14 08:25:00,
2013-04-14 04:30:00,46.9,38.7,29.98,SW,217,0.0,0.0,73,0.00,,---,0.00,0.00,VWS V14.01,2013-04-14 08:30:00,
2013-04-14 04:35:00,47.5,39.3,29.98,SW,217,0.0,0.0,73,0.00,,---,0.00,0.00,VWS V14.01,2013-04-14 08:35:00,
2013-04-14 04:40:00,48.0,39.8,29.98,SW,217,0.0,0.0,73,0.00,,---,0.00,0.00,VWS V14.01,2013-04-14 08:40:00,
2013-04-14 04:45:00,47.9,39.7,29.98,SW,217,0.0,0.0,73,0.00,,---,0.00,0.00,VWS V14.01,2013-04-14 08:45:00,
2013-04-14 04:50:00,47.7,39.1,29.98,SW,217,0.0,0.0,72,0.00,,---,0.00,0.00,VWS V14.01,2013-04-14 08:50:00,
2013-04-14 04:55:00,47.7,39.1,29.98,SW,217,0.0,0.0,72,0.00,,---,0.00,0.00,VWS V14.01,2013-04-14 08:55:00,
2013-04-14 05:00:00,47.4,39.2,29.98,SW,217,0.0,0.0,73,0.00,,---,0.00,0.00,VWS V14.01,2013-04-14 09:00:00,
2013-04-14 05:05:00,47.4,39.2,29.98,SW,217,0.0,0.0,73,0.00,,---,0.00,0.00,VWS V14.01,2013-04-14 09:05:00,
2013-04-14 05:10:00,47.2,38.7,29.98,SW,217,0.0,0.0,72,0.00,,---,0.00,0.00,VWS V14.01,2013-04-14 09:10:00,
2013-04-14 05:15:00,46.5,38.7,29.98,SW,217,0.0,0.0,74,0.00,,---,0.00,0.00,VWS V14.01,2013-04-14 09:15:00,
2013-04-14 05:20:00,46.0,38.5,29.98,SW,217,0.0,0.0,75,0.00,,---,0.00,0.00,VWS V14.01,2013-04-14 09:20:00,
2013-04-14 05:25:00,46.3,38.8,29.98,SW,217,0.0,0.0,75,0.00,,---,0.00,0.00,VWS V14.01,2013-04-14 09:25:00,
2013-04-14 05:30:00,46.0,38.9,29.98,SW,217,0.0,0.0,76,0.00,,---,0.00,0.00,VWS V14.01,2013-04-14 09:30:00,
2013-04-14 05:35:00,46.1,39.0,29.98,SW,217,0.0,0.0,76,0.00,,---,0.00,0.00,VWS V14.01,2013-04-14 09:35:00,
2013-04-14 05:40:00,45.8,38.7,29.99,SW,217,0.0,0.0,76,0.00,,---,0.00,0.00,VWS V14.01,2013-04-14 09:40:00,
2013-04-14 05:45:00,45.7,38.6,29.99,SW,217,0.0,0.0,76,0.00,,---,0.00,0.00,VWS V14.01,2013-04-14 09:45:00,
2013-04-14 05:50:00,45.4,38.3,29.99,SW,217,0.0,0.0,76,0.00,,---,0.00,0.00,VWS V14.01,2013-04-14 09:50:00,
2013-04-14 05:55:00,44.9,38.1,29.99,SW,217,0.0,0.0,77,0.00,,---,0.00,0.00,VWS V14.01,2013-04-14 09:55:00,
2013-04-14 06:00:00,44.8,38.4,29.99,SW,217,0.0,0.0,78,0.00,,---,0.00,0.00,VWS V14.01,2013-04-14 10:00:00,
2013-04-14 06:05:00,44.8,38.4,30.00,SW,217,0.0,0.0,78,0.00,,---,0.00,0.00,VWS V14.01,2013-04-14 10:05:00,
2013-04-14 06:10:00,44.7,38.3,30.00,SW,217,0.0,0.0,78,0.00,,---,0.00,0.00,VWS V14.01,2013-04-14 10:10:00,
2013-04-14 06:15:00,44.4,38.3,30.00,SW,233,0.0,0.0,79,0.00,,---,0.00,0.00,VWS V14.01,2013-04-14 10:15:00,
2013-04-14 06:20:00,44.7,38.3,30.01,SW,233,0.0,0.0,78,0.00,,---,0.00,0.00,VWS V14.01,2013-04-14 10:20:00,
2013-04-14 06:25:00,44.3,38.2,30.01,SW,233,0.0,0.0,79,0.00,,---,0.00,5.00,VWS V14.01,2013-04-14 10:25:00,
2013-04-14 06:30:00,44.6,38.5,30.01,SW,233,0.0,0.0,79,0.00,,---,0.00,7.00,VWS V14.01,2013-04-14 10:30:00,
2013-04-14 06:35:00,44.1,37.7,30.01,SW,233,0.0,0.0,78,0.00,,---,0.00,16.00,VWS V14.01,2013-04-14 10:35:00,
2013-04-14 06:40:00,43.3,37.6,30.01,SW,233,0.0,0.0,80,0.00,,---,0.00,18.00,VWS V14.01,2013-04-14 10:40:00,
2013-04-14 06:45:00,43.0,37.6,30.01,SW,232,0.0,0.0,81,0.00,,---,0.00,21.00,VWS V14.01,2013-04-14 10:45:00,
2013-04-14 06:50:00,43.6,38.2,30.01,SW,232,0.0,0.0,81,0.00,,---,0.00,32.00,VWS V14.01,2013-04-14 10:50:00,
2013-04-14 06:55:00,44.6,38.8,30.01,SW,232,0.0,0.0,80,0.00,,---,0.00,32.00,VWS V14.01,2013-04-14 10:55:00,
2013-04-14 07:00:00,44.5,38.4,30.01,SW,232,0.0,0.0,79,0.00,,---,0.00,33.00,VWS V14.01,2013-04-14 11:00:00,
2013-04-14 07:05:00,44.2,38.1,30.01,SW,232,0.0,0.0,79,0.00,,---,0.00,37.00,VWS V14.01,2013-04-14 11:05:00,
2013-04-14 07:10:00,45.3,38.9,30.02,SW,224,0.0,0.0,78,0.00,,---,0.00,42.00,VWS V14.01,2013-04-14 11:10:00,
2013-04-14 07:15:00,44.7,38.3,30.02,SW,224,0.0,0.0,78,0.00,,---,0.00,56.00,VWS V14.01,2013-04-14 11:15:00,
2013-04-14 07:20:00,44.6,38.2,30.02,SW,224,0.0,0.0,78,0.00,,---,0.00,62.00,VWS V14.01,2013-04-14 11:20:00,
2013-04-14 07:25:00,46.3,39.5,30.02,SW,224,0.0,0.0,77,0.00,,---,0.00,83.00,VWS V14.01,2013-04-14 11:25:00,
2013-04-14 07:30:00,46.5,39.4,30.02,SW,224,0.0,0.0,76,0.00,,---,0.00,135.00,VWS V14.01,2013-04-14 11:30:00,
2013-04-14 07:35:00,46.7,39.5,30.03,SW,224,0.0,0.0,76,0.00,,---,0.00,86.00,VWS V14.01,2013-04-14 11:35:00,
2013-04-14 07:40:00,47.1,39.2,30.03,SW,224,0.0,0.0,74,0.00,,---,0.00,98.00,VWS V14.01,2013-04-14 11:40:00,
2013-04-14 07:45:00,47.2,39.3,30.03,SW,234,0.0,0.0,74,0.00,,---,0.00,95.00,VWS V14.01,2013-04-14 11:45:00,
2013-04-14 07:50:00,48.3,38.6,30.03,SW,234,0.0,0.0,69,0.00,,---,0.00,97.00,VWS V14.01,2013-04-14 11:50:00,
2013-04-14 07:55:00,48.9,38.1,30.03,WSW,247,0.0,0.0,66,0.00,,---,0.00,114.00,VWS V14.01,2013-04-14 11:55:00,
2013-04-14 08:00:00,49.5,37.0,30.04,West,260,0.0,0.0,62,0.00,,---,0.00,134.00,VWS V14.01,2013-04-14 12:00:00,
2013-04-14 08:05:00,50.1,36.3,30.04,West,273,0.0,0.0,59,0.00,,---,0.00,155.00,VWS V14.01,2013-04-14 12:05:00,
2013-04-14 08:10:00,50.7,36.5,30.04,West,266,0.0,0.0,58,0.00,,---,0.00,181.00,VWS V14.01,2013-04-14 12:10:00,
2013-04-14 08:15:00,51.2,35.6,30.04,WSW,252,0.0,0.0,55,0.00,,---,0.00,149.00,VWS V14.01,2013-04-14 12:15:00,
2013-04-14 08:20:00,51.3,35.7,30.04,SW,221,0.0,0.0,55,0.00,,---,0.00,158.00,VWS V14.01,2013-04-14 12:20:00,
2013-04-14 08:25:00,51.3,35.2,30.04,SW,236,0.0,0.0,54,0.00,,---,0.00,162.00,VWS V14.01,2013-04-14 12:25:00,
2013-04-14 08:30:00,51.3,35.2,30.04,WSW,255,0.0,0.0,54,0.00,,---,0.00,288.00,VWS V14.01,2013-04-14 12:30:00,
2013-04-14 08:35:00,51.4,35.3,30.04,WSW,245,0.0,0.0,54,0.00,,---,0.00,172.00,VWS V14.01,2013-04-14 12:35:00,
2013-04-14 08:40:00,51.1,35.0,30.05,WNW,288,0.0,0.0,54,0.00,,---,0.00,181.00,VWS V14.01,2013-04-14 12:40:00,
2013-04-14 08:45:00,51.6,35.0,30.04,West,281,0.0,0.0,53,0.00,,---,0.00,438.00,VWS V14.01,2013-04-14 12:45:00,
2013-04-14 08:50:00,52.7,35.6,30.04,WNW,284,0.0,0.0,52,0.00,,---,0.00,441.00,VWS V14.01,2013-04-14 12:50:00,
2013-04-14 08:55:00,53.0,35.4,30.05,West,271,0.0,0.0,51,0.00,,---,0.00,466.00,VWS V14.01,2013-04-14 12:55:00,
2013-04-14 09:00:00,53.3,35.7,30.05,West,270,0.0,0.0,51,0.00,,---,0.00,118.00,VWS V14.01,2013-04-14 13:00:00,
2013-04-14 09:05:00,52.7,35.1,30.04,WNW,293,0.0,0.0,51,0.00,,---,0.00,487.00,VWS V14.01,2013-04-14 13:05:00,
2013-04-14 09:10:00,53.2,35.1,30.04,NW,306,0.0,0.0,50,0.00,,---,0.00,504.00,VWS V14.01,2013-04-14 13:10:00,
2013-04-14 09:15:00,53.4,35.7,30.04,WSW,252,0.0,0.0,51,0.00,,---,0.00,515.00,VWS V14.01,2013-04-14 13:15:00,
2013-04-14 09:20:00,54.2,35.5,30.05,West,269,0.0,0.0,49,0.00,,---,0.00,533.00,VWS V14.01,2013-04-14 13:20:00,
2013-04-14 09:25:00,54.4,34.6,30.05,WSW,244,0.0,0.0,47,0.00,,---,0.00,540.00,VWS V14.01,2013-04-14 13:25:00,
2013-04-14 09:30:00,54.6,34.8,30.04,West,269,0.0,0.0,47,0.00,,---,0.00,564.00,VWS V14.01,2013-04-14 13:30:00,
2013-04-14 09:35:00,55.1,34.7,30.04,West,281,0.0,0.0,46,0.00,,---,0.00,580.00,VWS V14.01,2013-04-14 13:35:00,
2013-04-14 09:40:00,55.5,34.0,30.05,WNW,287,0.0,0.0,44,0.00,,---,0.00,603.00,VWS V14.01,2013-04-14 13:40:00,
2013-04-14 09:45:00,55.0,33.5,30.05,WNW,290,0.0,0.0,44,0.00,,---,0.00,629.00,VWS V14.01,2013-04-14 13:45:00,
2013-04-14 09:50:00,55.5,34.0,30.05,WNW,302,0.0,0.0,44,0.00,,---,0.00,684.00,VWS V14.01,2013-04-14 13:50:00,
2013-04-14 09:55:00,56.3,35.2,30.05,WSW,249,0.0,0.0,45,0.00,,---,0.00,677.00,VWS V14.01,2013-04-14 13:55:00,
2013-04-14 10:00:00,56.7,35.0,30.05,NW,318,0.0,0.0,44,0.00,,---,0.00,703.00,VWS V14.01,2013-04-14 14:00:00,
2013-04-14 10:05:00,56.0,35.0,30.05,WSW,254,0.0,0.0,45,0.00,,---,0.00,701.00,VWS V14.01,2013-04-14 14:05:00,
2013-04-14 10:10:00,55.7,34.1,30.05,NNE,23,0.0,0.0,44,0.00,,---,0.00,710.00,VWS V14.01,2013-04-14 14:10:00,
2013-04-14 10:15:00,55.4,33.9,30.05,WNW,282,0.0,0.0,44,0.00,,---,0.00,737.00,VWS V14.01,2013-04-14 14:15:00,
2013-04-14 10:20:00,55.9,33.8,30.05,NW,306,0.0,0.0,43,0.00,,---,0.00,779.00,VWS V14.01,2013-04-14 14:20:00,
2013-04-14 10:25:00,55.8,33.7,30.05,NW,307,0.0,0.0,43,0.00,,---,0.00,770.00,VWS V14.01,2013-04-14 14:25:00,
2013-04-14 10:30:00,55.8,31.9,30.06,WNW,301,0.0,0.0,40,0.00,,---,0.00,782.00,VWS V14.01,2013-04-14 14:30:00,
2013-04-14 10:35:00,55.3,33.2,30.05,West,269,0.0,0.0,43,0.00,,---,0.00,780.00,VWS V14.01,2013-04-14 14:35:00,
2013-04-14 10:40:00,55.8,32.5,30.05,West,275,0.0,0.0,41,0.00,,---,0.00,777.00,VWS V14.01,2013-04-14 14:40:00,
2013-04-14 10:45:00,56.4,34.2,30.06,WNW,290,0.0,0.0,43,0.00,,---,0.00,828.00,VWS V14.01,2013-04-14 14:45:00,
2013-04-14 10:50:00,55.6,32.9,30.06,NNW,327,0.0,0.0,42,0.00,,---,0.00,777.00,VWS V14.01,2013-04-14 14:50:00,
2013-04-14 10:55:00,56.4,33.6,30.06,NNW,341,0.0,0.0,42,0.00,,---,0.00,872.00,VWS V14.01,2013-04-14 14:55:00,
2013-04-14 11:00:00,56.3,32.9,30.07,West,275,0.0,0.0,41,0.00,,---,0.00,911.00,VWS V14.01,2013-04-14 15:00:00,
2013-04-14 11:05:00,56.2,31.0,30.07,WSW,242,0.0,0.0,38,0.00,,---,0.00,946.00,VWS V14.01,2013-04-14 15:05:00,
2013-04-14 11:10:00,56.0,32.0,30.07,West,277,0.0,0.0,40,0.00,,---,0.00,383.00,VWS V14.01,2013-04-14 15:10:00,
2013-04-14 11:15:00,55.7,31.1,30.07,NW,321,0.0,0.0,39,0.00,,---,0.00,195.00,VWS V14.01,2013-04-14 15:15:00,
2013-04-14 11:20:00,55.3,33.2,30.07,NW,320,0.0,0.0,43,0.00,,---,0.00,935.00,VWS V14.01,2013-04-14 15:20:00,
2013-04-14 11:25:00,56.4,31.8,30.07,North,5,0.0,0.0,39,0.00,,---,0.00,306.00,VWS V14.01,2013-04-14 15:25:00,
2013-04-14 11:30:00,55.5,31.6,30.08,WNW,286,0.0,0.0,40,0.00,,---,0.00,399.00,VWS V14.01,2013-04-14 15:30:00,
2013-04-14 11:35:00,56.1,32.7,30.07,WSW,241,0.0,0.0,41,0.00,,---,0.00,946.00,VWS V14.01,2013-04-14 15:35:00,
2013-04-14 11:40:00,56.4,31.8,30.08,NW,318,0.0,0.0,39,0.00,,---,0.00,199.00,VWS V14.01,2013-04-14 15:40:00,
2013-04-14 11:45:00,55.8,32.5,30.08,WSW,237,0.0,0.0,41,0.00,,---,0.00,935.00,VWS V14.01,2013-04-14 15:45:00,
2013-04-14 11:50:00,56.6,32.0,30.08,WNW,296,0.0,0.0,39,0.00,,---,0.00,956.00,VWS V14.01,2013-04-14 15:50:00,
2013-04-14 11:55:00,56.9,32.2,30.07,West,267,0.0,0.0,39,0.00,,---,0.00,972.00,VWS V14.01,2013-04-14 15:55:00,
2013-04-14 12:00:00,56.5,29.9,30.07,WNW,293,0.0,0.0,36,0.00,,---,0.00,916.00,VWS V14.01,2013-04-14 16:00:00,
2013-04-14 12:05:00,57.3,29.2,30.07,WNW,290,0.0,0.0,34,0.00,,---,0.00,914.00,VWS V14.01,2013-04-14 16:05:00,
2013-04-14 12:10:00,57.3,29.2,30.07,NW,311,0.0,0.0,34,0.00,,---,0.00,911.00,VWS V14.01,2013-04-14 16:10:00,
2013-04-14 12:15:00,57.0,28.2,30.07,NW,321,0.0,0.0,33,0.00,,---,0.00,919.00,VWS V14.01,2013-04-14 16:15:00,
2013-04-14 12:20:00,57.7,29.5,30.07,West,273,0.0,0.0,34,0.00,,---,0.00,969.00,VWS V14.01,2013-04-14 16:20:00,
2013-04-14 12:25:00,58.0,27.6,30.07,WNW,289,0.0,0.0,31,0.00,,---,0.00,919.00,VWS V14.01,2013-04-14 16:25:00,
2013-04-14 12:30:00,56.5,27.0,30.07,West,263,0.0,0.0,32,0.00,,---,0.00,923.00,VWS V14.01,2013-04-14 16:30:00,
2013-04-14 12:35:00,56.9,28.1,30.07,North,360,0.0,0.0,33,0.00,,---,0.00,960.00,VWS V14.01,2013-04-14 16:35:00,
2013-04-14 12:40:00,57.2,28.4,30.07,NNW,327,0.0,0.0,33,0.00,,---,0.00,919.00,VWS V14.01,2013-04-14 16:40:00,
2013-04-14 12:45:00,58.1,27.6,30.07,WNW,284,0.0,0.0,31,0.00,,---,0.00,926.00,VWS V14.01,2013-04-14 16:45:00,
2013-04-14 12:50:00,57.5,27.9,30.07,WSW,249,0.0,0.0,32,0.00,,---,0.00,925.00,VWS V14.01,2013-04-14 16:50:00,
2013-04-14 12:55:00,57.8,27.4,30.06,WNW,292,0.0,0.0,31,0.00,,---,0.00,933.00,VWS V14.01,2013-04-14 16:55:00,
2013-04-14 13:00:00,57.7,28.8,30.07,North,350,0.0,0.0,33,0.00,,---,0.00,930.00,VWS V14.01,2013-04-14 17:00:00,
2013-04-14 13:05:00,57.7,27.3,30.07,North,349,0.0,0.0,31,0.00,,---,0.00,925.00,VWS V14.01,2013-04-14 17:05:00,
2013-04-14 13:10:00,57.4,27.8,30.07,NNW,337,0.0,0.0,32,0.00,,---,0.00,930.00,VWS V14.01,2013-04-14 17:10:00,
2013-04-14 13:15:00,58.7,28.9,30.06,WSW,251,0.0,0.0,32,0.00,,---,0.00,923.00,VWS V14.01,2013-04-14 17:15:00,
2013-04-14 13:20:00,58.5,28.0,30.06,WNW,301,0.0,0.0,31,0.00,,---,0.00,928.00,VWS V14.01,2013-04-14 17:20:00,
2013-04-14 13:25:00,58.2,27.7,30.07,NNW,334,0.0,0.0,31,0.00,,---,0.00,926.00,VWS V14.01,2013-04-14 17:25:00,
2013-04-14 13:30:00,58.2,29.3,30.07,WNW,297,0.0,0.0,33,0.00,,---,0.00,935.00,VWS V14.01,2013-04-14 17:30:00,
2013-04-14 13:35:00,58.2,28.5,30.07,NNW,328,0.0,0.0,32,0.00,,---,0.00,918.00,VWS V14.01,2013-04-14 17:35:00,
2013-04-14 13:40:00,58.4,29.4,30.07,NNW,329,0.0,0.0,33,0.00,,---,0.00,914.00,VWS V14.01,2013-04-14 17:40:00,
2013-04-14 13:45:00,58.6,28.9,30.06,NW,309,0.0,0.0,32,0.00,,---,0.00,904.00,VWS V14.01,2013-04-14 17:45:00,
2013-04-14 13:50:00,58.9,27.5,30.06,WNW,288,0.0,0.0,30,0.00,,---,0.00,914.00,VWS V14.01,2013-04-14 17:50:00,
2013-04-14 13:55:00,58.7,29.7,30.06,WSW,241,0.0,0.0,33,0.00,,---,0.00,907.00,VWS V14.01,2013-04-14 17:55:00,
2013-04-14 14:00:00,58.6,28.9,30.06,WNW,302,0.0,0.0,32,0.00,,---,0.00,902.00,VWS V14.01,2013-04-14 18:00:00,
2013-04-14 14:05:00,58.8,30.5,30.06,NNE,27,0.0,0.0,34,0.00,,---,0.00,895.00,VWS V14.01,2013-04-14 18:05:00,
2013-04-14 14:10:00,59.4,30.3,30.07,West,281,0.0,0.0,33,0.00,,---,0.00,888.00,VWS V14.01,2013-04-14 18:10:00,
2013-04-14 14:15:00,58.8,29.0,30.07,WNW,303,0.0,0.0,32,0.00,,---,0.00,893.00,VWS V14.01,2013-04-14 18:15:00,
2013-04-14 14:20:00,58.7,28.9,30.07,West,273,0.0,0.0,32,0.00,,---,0.00,881.00,VWS V14.01,2013-04-14 18:20:00,
2013-04-14 14:25:00,58.7,29.7,30.06,NE,48,0.0,0.0,33,0.00,,---,0.00,877.00,VWS V14.01,2013-04-14 18:25:00,
2013-04-14 14:30:00,59.2,29.4,30.06,WNW,290,0.0,0.0,32,0.00,,---,0.00,886.00,VWS V14.01,2013-04-14 18:30:00,
2013-04-14 14:35:00,59.1,29.3,30.06,WNW,302,0.0,0.0,32,0.00,,---,0.00,854.00,VWS V14.01,2013-04-14 18:35:00,
2013-04-14 14:40:00,59.4,28.8,30.06,NNW,345,0.0,0.0,31,0.00,,---,0.00,798.00,VWS V14.01,2013-04-14 18:40:00,
2013-04-14 14:45:00,59.6,29.0,30.06,West,276,0.0,0.0,31,0.00,,---,0.00,840.00,VWS V14.01,2013-04-14 18:45:00,
2013-04-14 14:50:00,59.6,29.0,30.06,North,355,0.0,0.0,31,0.00,,---,0.00,844.00,VWS V14.01,2013-04-14 18:50:00,
2013-04-14 14:55:00,59.3,29.5,30.06,West,273,0.0,0.0,32,0.00,,---,0.00,835.00,VWS V14.01,2013-04-14 18:55:00,
2013-04-14 15:00:00,59.0,29.2,30.06,NW,314,0.0,0.0,32,0.00,,---,0.00,745.00,VWS V14.01,2013-04-14 19:00:00,
2013-04-14 15:05:00,58.7,28.2,30.06,NNW,333,0.0,0.0,31,0.00,,---,0.00,789.00,VWS V14.01,2013-04-14 19:05:00,
2013-04-14 15:10:00,58.9,29.1,30.06,NNW,336,0.0,0.0,32,0.00,,---,0.00,770.00,VWS V14.01,2013-04-14 19:10:00,
2013-04-14 15:15:00,59.3,29.5,30.06,North,355,0.0,0.0,32,0.00,,---,0.00,638.00,VWS V14.01,2013-04-14 19:15:00,
2013-04-14 15:20:00,59.8,29.9,30.06,West,275,0.0,0.0,32,0.00,,---,0.00,782.00,VWS V14.01,2013-04-14 19:20:00,
2013-04-14 15:25:00,59.5,28.9,30.05,WSW,250,0.0,0.0,31,0.00,,---,0.00,773.00,VWS V14.01,2013-04-14 19:25:00,
2013-04-14 15:30:00,59.5,29.6,30.05,WSW,239,0.0,0.0,32,0.00,,---,0.00,752.00,VWS V14.01,2013-04-14 19:30:00,
2013-04-14 15:35:00,59.6,30.5,30.05,NW,324,0.0,0.0,33,0.00,,---,0.00,691.00,VWS V14.01,2013-04-14 19:35:00,
2013-04-14 15:40:00,59.5,29.6,30.06,WNW,289,0.0,0.0,32,0.00,,---,0.00,733.00,VWS V14.01,2013-04-14 19:40:00,
2013-04-14 15:45:00,59.4,28.8,30.05,WNW,290,0.0,0.0,31,0.00,,---,0.00,728.00,VWS V14.01,2013-04-14 19:45:00,
2013-04-14 15:50:00,59.5,29.6,30.05,NNW,348,0.0,0.0,32,0.00,,---,0.00,645.00,VWS V14.01,2013-04-14 19:50:00,
2013-04-14 15:55:00,59.7,28.2,30.05,NW,309,0.0,0.0,30,0.00,,---,0.00,585.00,VWS V14.01,2013-04-14 19:55:00,
2013-04-14 16:00:00,60.0,29.3,30.05,North,355,0.0,0.0,31,0.00,,---,0.00,575.00,VWS V14.01,2013-04-14 20:00:00,
2013-04-14 16:05:00,60.0,29.3,30.06,NNE,22,0.0,0.0,31,0.00,,---,0.00,559.00,VWS V14.01,2013-04-14 20:05:00,
2013-04-14 16:10:00,59.8,28.3,30.05,NNW,344,0.0,0.0,30,0.00,,---,0.00,624.00,VWS V14.01,2013-04-14 20:10:00,
2013-04-14 16:15:00,60.0,30.1,30.06,NE,37,0.0,0.0,32,0.00,,---,0.00,650.00,VWS V14.01,2013-04-14 20:15:00,
2013-04-14 16:20:00,60.4,28.0,30.06,NNW,333,0.0,0.0,29,0.00,,---,0.00,631.00,VWS V14.01,2013-04-14 20:20:00,
2013-04-14 16:25:00,60.0,28.5,30.07,WSW,252,0.0,0.0,30,0.00,,---,0.00,626.00,VWS V14.01,2013-04-14 20:25:00,
2013-04-14 16:30:00,59.7,28.2,30.07,NNW,339,0.0,0.0,30,0.00,,---,0.00,552.00,VWS V14.01,2013-04-14 20:30:00,
2013-04-14 16:35:00,59.9,28.4,30.07,NW,313,0.0,0.0,30,0.00,,---,0.00,533.00,VWS V14.01,2013-04-14 20:35:00,
2013-04-14 16:40:00,59.6,28.1,30.07,NNE,28,0.0,0.0,30,0.00,,---,0.00,510.00,VWS V14.01,2013-04-14 20:40:00,
2013-04-14 16:45:00,59.8,27.5,30.07,North,360,0.0,0.0,29,0.00,,---,0.00,529.00,VWS V14.01,2013-04-14 20:45:00,
2013-04-14 16:50:00,59.8,28.3,30.08,West,275,0.0,0.0,30,0.00,,---,0.00,519.00,VWS V14.01,2013-04-14 20:50:00,
2013-04-14 16:55:00,60.3,29.6,30.08,WSW,255,0.0,0.0,31,0.00,,---,0.00,441.00,VWS V14.01,2013-04-14 20:55:00,
2013-04-14 17:00:00,60.4,28.0,30.08,West,279,0.0,0.0,29,0.00,,---,0.00,452.00,VWS V14.01,2013-04-14 21:00:00,
2013-04-14 17:05:00,61.4,28.9,30.08,West,267,0.0,0.0,29,0.00,,---,0.00,436.00,VWS V14.01,2013-04-14 21:05:00,
2013-04-14 17:10:00,60.5,28.9,30.08,West,265,0.0,0.0,30,0.00,,---,0.00,417.00,VWS V14.01,2013-04-14 21:10:00,
2013-04-14 17:15:00,60.0,29.3,30.08,NNW,335,0.0,0.0,31,0.00,,---,0.00,355.00,VWS V14.01,2013-04-14 21:15:00,
2013-04-14 17:20:00,59.5,28.1,30.08,NNW,329,0.0,0.0,30,0.00,,---,0.00,355.00,VWS V14.01,2013-04-14 21:20:00,
2013-04-14 17:25:00,59.4,28.0,30.07,NNW,327,0.0,0.0,30,0.00,,---,0.00,318.00,VWS V14.01,2013-04-14 21:25:00,
2013-04-14 17:30:00,59.7,29.0,30.07,NNW,348,0.0,0.0,31,0.00,,---,0.00,360.00,VWS V14.01,2013-04-14 21:30:00,
2013-04-14 17:35:00,60.4,30.4,30.08,NNE,15,0.0,0.0,32,0.00,,---,0.00,299.00,VWS V14.01,2013-04-14 21:35:00,
2013-04-14 17:40:00,59.8,27.5,30.08,NNE,26,0.0,0.0,29,0.00,,---,0.00,274.00,VWS V14.01,2013-04-14 21:40:00,
2013-04-14 17:45:00,59.9,29.2,30.08,North,360,0.0,0.0,31,0.00,,---,0.00,285.00,VWS V14.01,2013-04-14 21:45:00,
2013-04-14 17:50:00,59.9,28.4,30.08,North,355,0.0,0.0,30,0.00,,---,0.00,248.00,VWS V14.01,2013-04-14 21:50:00,
2013-04-14 17:55:00,59.6,28.1,30.08,North,360,0.0,0.0,30,0.00,,---,0.00,220.00,VWS V14.01,2013-04-14 21:55:00,
2013-04-14 18:00:00,59.5,28.1,30.09,NE,38,0.0,0.0,30,0.00,,---,0.00,193.00,VWS V14.01,2013-04-14 22:00:00,
2013-04-14 18:05:00,59.3,27.9,30.09,North,355,0.0,0.0,30,0.00,,---,0.00,172.00,VWS V14.01,2013-04-14 22:05:00,
2013-04-14 18:10:00,58.9,28.3,30.08,NE,34,0.0,0.0,31,0.00,,---,0.00,174.00,VWS V14.01,2013-04-14 22:10:00,
2013-04-14 18:15:00,59.1,28.5,30.09,NNE,18,0.0,0.0,31,0.00,,---,0.00,171.00,VWS V14.01,2013-04-14 22:15:00,
2013-04-14 18:20:00,59.6,28.1,30.09,NNE,22,0.0,0.0,30,0.00,,---,0.00,141.00,VWS V14.01,2013-04-14 22:20:00,
2013-04-14 18:25:00,58.9,28.3,30.10,NNE,17,0.0,0.0,31,0.00,,---,0.00,121.00,VWS V14.01,2013-04-14 22:25:00,
2013-04-14 18:30:00,58.6,28.1,30.10,West,278,0.0,0.0,31,0.00,,---,0.00,127.00,VWS V14.01,2013-04-14 22:30:00,
2013-04-14 18:35:00,58.8,29.0,30.10,North,355,0.0,0.0,32,0.00,,---,0.00,95.00,VWS V14.01,2013-04-14 22:35:00,
2013-04-14 18:40:00,58.6,28.1,30.10,NNE,21,0.0,0.0,31,0.00,,---,0.00,86.00,VWS V14.01,2013-04-14 22:40:00,
2013-04-14 18:45:00,58.4,28.7,30.10,NE,42,0.0,0.0,32,0.00,,---,0.00,70.00,VWS V14.01,2013-04-14 22:45:00,
2013-04-14 18:50:00,58.0,27.6,30.10,NE,41,0.0,0.0,31,0.00,,---,0.00,58.00,VWS V14.01,2013-04-14 22:50:00,
2013-04-14 18:55:00,57.9,29.0,30.11,NNE,29,0.0,0.0,33,0.00,,---,0.00,53.00,VWS V14.01,2013-04-14 22:55:00,
2013-04-14 19:00:00,57.7,28.1,30.11,NNE,20,0.0,0.0,32,0.00,,---,0.00,42.00,VWS V14.01,2013-04-14 23:00:00,
2013-04-14 19:05:00,56.8,27.3,30.11,East,85,0.0,0.0,32,0.00,,---,0.00,33.00,VWS V14.01,2013-04-14 23:05:00,
2013-04-14 19:10:00,56.9,28.8,30.11,NNE,26,0.0,0.0,34,0.00,,---,0.00,28.00,VWS V14.01,2013-04-14 23:10:00,
2013-04-14 19:15:00,57.1,28.3,30.12,North,9,0.0,0.0,33,0.00,,---,0.00,19.00,VWS V14.01,2013-04-14 23:15:00,
2013-04-14 19:20:00,56.8,28.0,30.12,NE,45,0.0,0.0,33,0.00,,---,0.00,14.00,VWS V14.01,2013-04-14 23:20:00,
2013-04-14 19:25:00,56.7,27.9,30.12,NNE,22,0.0,0.0,33,0.00,,---,0.00,9.00,VWS V14.01,2013-04-14 23:25:00,
2013-04-14 19:30:00,56.5,28.5,30.13,NNE,24,0.0,0.0,34,0.00,,---,0.00,0.00,VWS V14.01,2013-04-14 23:30:00,
2013-04-14 19:35:00,56.3,29.0,30.13,NE,39,0.0,0.0,35,0.00,,---,0.00,0.00,VWS V14.01,2013-04-14 23:35:00,
2013-04-14 19:40:00,56.2,28.2,30.13,North,5,0.0,0.0,34,0.00,,---,0.00,0.00,VWS V14.01,2013-04-14 23:40:00,
2013-04-14 19:45:00,55.8,28.6,30.14,NNE,20,0.0,0.0,35,0.00,,---,0.00,0.00,VWS V14.01,2013-04-14 23:45:00,
2013-04-14 19:50:00,55.7,28.5,30.13,NNE,26,0.0,0.0,35,0.00,,---,0.00,0.00,VWS V14.01,2013-04-14 23:50:00,
2013-04-14 19:55:00,55.7,28.5,30.14,NE,49,0.0,0.0,35,0.00,,---,0.00,0.00,VWS V14.01,2013-04-14 23:55:00,
2013-04-14 20:00:00,55.2,28.0,30.14,East,87,0.0,0.0,35,0.00,,---,0.00,0.00,VWS V14.01,2013-04-15 00:00:00,
2013-04-14 20:05:00,54.6,28.2,30.14,East,94,0.0,0.0,36,0.00,,---,0.00,0.00,VWS V14.01,2013-04-15 00:05:00,
2013-04-14 20:10:00,54.3,27.9,30.14,ESE,103,0.0,0.0,36,0.00,,---,0.00,0.00,VWS V14.01,2013-04-15 00:10:00,
2013-04-14 20:15:00,54.2,28.5,30.14,NE,34,0.0,0.0,37,0.00,,---,0.00,0.00,VWS V14.01,2013-04-15 00:15:00,
2013-04-14 20:20:00,54.8,28.4,30.15,ENE,77,0.0,0.0,36,0.00,,---,0.00,0.00,VWS V14.01,2013-04-15 00:20:00,
2013-04-14 20:25:00,54.7,29.0,30.15,NNE,19,0.0,0.0,37,0.00,,---,0.00,0.00,VWS V14.01,2013-04-15 00:25:00,
2013-04-14 20:30:00,54.4,29.3,30.15,NNE,20,0.0,0.0,38,0.00,,---,0.00,0.00,VWS V14.01,2013-04-15 00:30:00,
2013-04-14 20:35:00,54.2,29.2,30.15,NE,53,0.0,0.0,38,0.00,,---,0.00,0.00,VWS V14.01,2013-04-15 00:35:00,
2013-04-14 20:40:00,53.9,28.9,30.16,NE,44,0.0,0.0,38,0.00,,---,0.00,0.00,VWS V14.01,2013-04-15 00:40:00,
2013-04-14 20:45:00,54.0,29.0,30.16,NE,36,0.0,0.0,38,0.00,,---,0.00,0.00,VWS V14.01,2013-04-15 00:45:00,
2013-04-14 20:50:00,53.5,28.5,30.17,NNE,16,0.0,0.0,38,0.00,,---,0.00,0.00,VWS V14.01,2013-04-15 00:50:00,
2013-04-14 20:55:00,53.3,28.4,30.17,NNE,19,0.0,0.0,38,0.00,,---,0.00,0.00,VWS V14.01,2013-04-15 00:55:00,
2013-04-14 21:00:00,53.3,29.0,30.16,ENE,61,0.0,0.0,39,0.00,,---,0.00,0.00,VWS V14.01,2013-04-15 01:00:00,
2013-04-14 21:05:00,53.1,28.8,30.17,NE,34,0.0,0.0,39,0.00,,---,0.00,0.00,VWS V14.01,2013-04-15 01:05:00,
2013-04-14 21:10:00,53.2,28.9,30.17,NE,38,0.0,0.0,39,0.00,,---,0.00,0.00,VWS V14.01,2013-04-15 01:10:00,
2013-04-14 21:15:00,52.8,28.5,30.17,NE,54,0.0,0.0,39,0.00,,---,0.00,0.00,VWS V14.01,2013-04-15 01:15:00,
2013-04-14 21:20:00,52.6,29.0,30.18,NNE,17,0.0,0.0,40,0.00,,---,0.00,0.00,VWS V14.01,2013-04-15 01:20:00,
2013-04-14 21:25:00,52.7,29.7,30.18,NNE,28,0.0,0.0,41,0.00,,---,0.00,0.00,VWS V14.01,2013-04-15 01:25:00,
2013-04-14 21:30:00,52.8,29.2,30.18,NNE,26,0.0,0.0,40,0.00,,---,0.00,0.00,VWS V14.01,2013-04-15 01:30:00,
2013-04-14 21:35:00,52.8,29.8,30.18,NNE,19,0.0,0.0,41,0.00,,---,0.00,0.00,VWS V14.01,2013-04-15 01:35:00,
2013-04-14 21:40:00,52.6,29.0,30.18,NE,43,0.0,0.0,40,0.00,,---,0.00,0.00,VWS V14.01,2013-04-15 01:40:00,
2013-04-14 21:45:00,52.4,30.0,30.18,NNE,29,0.0,0.0,42,0.00,,---,0.00,0.00,VWS V14.01,2013-04-15 01:45:00,
2013-04-14 21:50:00,52.5,29.5,30.18,NNE,29,0.0,0.0,41,0.00,,---,0.00,0.00,VWS V14.01,2013-04-15 01:50:00,
2013-04-14 21:55:00,52.3,29.3,30.18,NNE,28,0.0,0.0,41,0.00,,---,0.00,0.00,VWS V14.01,2013-04-15 01:55:00,
2013-04-14 22:00:00,52.0,29.0,30.18,NNE,22,0.0,0.0,41,0.00,,---,0.00,0.00,VWS V14.01,2013-04-15 02:00:00,
2013-04-14 22:05:00,52.2,29.2,30.18,NNE,22,0.0,0.0,41,0.00,,---,0.00,0.00,VWS V14.01,2013-04-15 02:05:00,
2013-04-14 22:10:00,51.8,29.5,30.18,NNE,22,0.0,0.0,42,0.00,,---,0.00,0.00,VWS V14.01,2013-04-15 02:10:00,
2013-04-14 22:15:00,51.7,29.9,30.18,NNE,22,0.0,0.0,43,0.00,,---,0.00,0.00,VWS V14.01,2013-04-15 02:15:00,
2013-04-14 22:20:00,51.5,29.2,30.18,NNE,22,0.0,0.0,42,0.00,,---,0.00,0.00,VWS V14.01,2013-04-15 02:20:00,
2013-04-14 22:25:00,51.7,29.4,30.18,NNE,15,0.0,0.0,42,0.00,,---,0.00,0.00,VWS V14.01,2013-04-15 02:25:00,
2013-04-14 22:30:00,51.4,29.7,30.18,NNE,20,0.0,0.0,43,0.00,,---,0.00,0.00,VWS V14.01,2013-04-15 02:30:00,
2013-04-14 22:35:00,51.4,29.7,30.18,NE,34,0.0,0.0,43,0.00,,---,0.00,0.00,VWS V14.01,2013-04-15 02:35:00,
2013-04-14 22:40:00,51.0,28.7,30.18,NNE,31,0.0,0.0,42,0.00,,---,0.00,0.00,VWS V14.01,2013-04-15 02:40:00,
2013-04-14 22:45:00,50.9,29.2,30.18,North,355,0.0,0.0,43,0.00,,---,0.00,0.00,VWS V14.01,2013-04-15 02:45:00,
2013-04-14 22:50:00,50.8,28.5,30.19,NNE,33,0.0,0.0,42,0.00,,---,0.00,0.00,VWS V14.01,2013-04-15 02:50:00,
2013-04-14 22:55:00,50.5,28.9,30.19,East,94,0.0,0.0,43,0.00,,---,0.00,0.00,VWS V14.01,2013-04-15 02:55:00,
2013-04-14 23:00:00,50.6,29.0,30.19,NE,36,0.0,0.0,43,0.00,,---,0.00,0.00,VWS V14.01,2013-04-15 03:00:00,
2013-04-14 23:05:00,50.6,28.4,30.19,ENE,71,0.0,0.0,42,0.00,,---,0.00,0.00,VWS V14.01,2013-04-15 03:05:00,
2013-04-14 23:10:00,50.3,28.7,30.19,ENE,59,0.0,0.0,43,0.00,,---,0.00,0.00,VWS V14.01,2013-04-15 03:10:00,
2013-04-14 23:15:00,50.4,28.2,30.19,ENE,61,0.0,0.0,42,0.00,,---,0.00,0.00,VWS V14.01,2013-04-15 03:15:00,
2013-04-14 23:20:00,50.5,28.3,30.20,NE,52,0.0,0.0,42,0.00,,---,0.00,0.00,VWS V14.01,2013-04-15 03:20:00,
2013-04-14 23:25:00,50.5,28.9,30.20,NNE,23,0.0,0.0,43,0.00,,---,0.00,0.00,VWS V14.01,2013-04-15 03:25:00,
2013-04-14 23:30:00,50.3,28.1,30.19,NNE,15,0.0,0.0,42,0.00,,---,0.00,0.00,VWS V14.01,2013-04-15 03:30:00,
2013-04-14 23:35:00,50.0,27.8,30.20,NE,46,0.0,0.0,42,0.00,,---,0.00,0.00,VWS V14.01,2013-04-15 03:35:00,
2013-04-14 23:40:00,49.5,27.4,30.20,East,89,0.0,0.0,42,0.00,,---,0.00,0.00,VWS V14.01,2013-04-15 03:40:00,
2013-04-14 23:45:00,49.5,28.0,30.21,NE,37,0.0,0.0,43,0.00,,---,0.00,0.00,VWS V14.01,2013-04-15 03:45:00,
2013-04-14 23:50:00,49.7,28.1,30.20,NE,48,0.0,0.0,43,0.00,,---,0.00,0.00,VWS V14.01,2013-04-15 03:50:00,
2013-04-14 23:55:00,49.7,28.1,30.20,NE,55,0.0,0.0,43,0.00,,---,0.00,0.00,VWS V14.01,2013-04-15 03:55:00,